Friday, December 14, 2018, 7:09 PM EST
Back to Local

KPHL, Philadelphia International Airpt

Location: Philadelphia, PA, United States Lat: 39.867
Local Time: 7:09 PM EST ( 0:09 GMT) Lon: -75.233
Time Zone: US/Eastern Elev: 19 ft

Show me the last for .
Show Decoded

2018-12-14 17:54 METAR KPHL 142254Z 07004KT 10SM -RA FEW010 BKN090 OVC120 08/07 A3033 RMK AO2
                 RAB23E33B54 SLP271 P0000 T00830072 $ =
2018-12-14 16:54 METAR KPHL 142154Z 00000KT 10SM SCT017 BKN080 OVC120 10/08 A3034 RMK AO2 SLP272
                 T01000083 $ =
2018-12-14 15:54 METAR KPHL 142054Z 00000KT 10SM SCT017 BKN080 OVC120 09/08 A3034 RMK AO2 SLP272
                 T00940078 56013 =
2018-12-14 14:54 METAR KPHL 141954Z 00000KT 10SM SCT017 BKN080 OVC180 11/08 A3034 RMK AO2 SLP273
                 T01060078 $ =
2018-12-14 13:54 METAR KPHL 141854Z 00000KT 10SM FEW014 SCT033 BKN075 OVC180 11/08 A3035 RMK AO2
                 SLP278 T01060078 $ =
2018-12-14 13:25 METAR KPHL 141825Z 13003KT 10SM SCT014 BKN034 BKN041 OVC180 11/08 A3036 RMK AO2
                 T01060078 $ =
2018-12-14 12:54 METAR KPHL 141754Z 00000KT 10SM OVC014 11/08 A3037 RMK AO2 SLP285 T01060078
                 10106 20033 56028 =
2018-12-14 11:54 METAR KPHL 141654Z 08003KT 10SM OVC011 10/07 A3038 RMK AO2 SLP286 T01000072 =
2018-12-14 10:54 METAR KPHL 141554Z 07007KT 10SM BKN011 BKN018 OVC028 08/06 A3042 RMK AO2 SLP300
                 T00830061 =
2018-12-14 10:41 METAR KPHL 141541Z 07006KT 10SM BKN011 BKN018 OVC027 08/06 A3043 RMK AO2
                 T00830061 =
2018-12-14 09:54 METAR KPHL 141454Z 07004KT 8SM FEW009 BKN012 OVC024 07/05 A3046 RMK AO2 SLP312
                 T00670050 50000 =
2018-12-14 09:23 METAR KPHL 141423Z 05004KT 7SM SCT007 BKN013 OVC022 06/04 A3047 RMK AO2
                 T00560044 =
2018-12-14 09:05 METAR KPHL 141405Z 00000KT 7SM BKN007 BKN012 OVC022 06/04 A3047 RMK AO2
                 T00560039 =
2018-12-14 08:54 METAR KPHL 141354Z 10003KT 6SM BR FEW007 BKN015 OVC022 06/04 A3047 RMK AO2
                 SLP318 T00560039 =
2018-12-14 08:47 METAR KPHL 141347Z 10003KT 6SM BR FEW007 BKN017 BKN023 OVC260 06/04 A3047 RMK
                 AO2 T00560039 =
2018-12-14 07:54 METAR KPHL 141254Z 07004KT 5SM BR SCT014 BKN021 BKN070 BKN260 04/04 A3046 RMK
                 AO2 SLP312 T00440039 $ =
2018-12-14 07:10 METAR KPHL 141210Z 04003KT 5SM BR FEW009 SCT014 BKN023 OVC260 03/03 A3046 RMK
                 AO2 T00330028 $ =
2018-12-14 06:54 METAR KPHL 141154Z 04003KT 7SM FEW009 SCT014 OVC024 03/03 A3046 RMK AO2 SLP313
                 T00330028 10050 20022 53012 $ =
2018-12-14 06:03 METAR KPHL 141103Z 05004KT 8SM FEW008 SCT016 OVC025 04/03 A3042 RMK AO2
                 T00390033 $ =
2018-12-14 05:54 METAR KPHL 141054Z 05004KT 8SM BKN016 OVC026 04/03 A3042 RMK AO2 SLP300
                 T00440033 $ =
2018-12-14 05:39 METAR KPHL 141039Z 07006KT 8SM BKN016 OVC023 04/04 A3042 RMK AO2 T00440039 $ =
2018-12-14 05:04 METAR KPHL 141004Z 07005KT 7SM BKN014 OVC021 05/04 A3043 RMK AO2 T00500039 $ =
2018-12-14 04:54 METAR KPHL 140954Z 08004KT 6SM BR BKN014 OVC025 05/04 A3042 RMK AO2 SLP302
                 T00500039 $ =
2018-12-14 03:54 METAR KPHL 140854Z 06004KT 5SM BR BKN012 OVC065 04/03 A3042 RMK AO2 SLP301
                 T00390028 58005 $ =
2018-12-14 02:54 METAR KPHL 140754Z 08007KT 5SM BR BKN012 OVC065 04/03 A3044 RMK AO2 SLP306
                 T00390028 $ =
2018-12-14 01:54 METAR KPHL 140654Z 05006KT 5SM BR BKN014 OVC065 03/02 A3044 RMK AO2 SLP306
                 T00330022 $ =
2018-12-14 01:50 METAR KPHL 140650Z 05004KT 5SM BR BKN014 OVC065 03/02 A3044 RMK AO2 $ =
2018-12-14 01:13 METAR KPHL 140613Z 06003KT 6SM BR SCT014 BKN029 BKN070 03/02 A3044 RMK AO2
                 T00280017 $ =
2018-12-14 01:02 METAR KPHL 140602Z 05005KT 8SM SCT014 BKN030 BKN070 OVC130 03/02 A3044 RMK AO2
                 T00280017 $ =
2018-12-14 00:54 METAR KPHL 140554Z 05004KT 10SM SCT014 BKN030 BKN070 OVC130 03/02 A3044 RMK AO2
                 SLP307 T00280017 10044 20017 58003 $ =
2018-12-13 23:54 METAR KPHL 140454Z 05006KT 10SM BKN032 BKN075 OVC130 03/01 A3045 RMK AO2 SLP311
                 T00280011 400940000 $ =
2018-12-13 22:54 METAR KPHL 140354Z 05006KT 10SM SCT030 BKN075 OVC150 02/01 A3045 RMK AO2 SLP312
                 T00220011 $ =
2018-12-13 21:54 METAR KPHL 140254Z 05005KT 10SM SCT030 02/00 A3045 RMK AO2 SLP310 T00170000
                 51010 $ =
2018-12-13 20:54 METAR KPHL 140154Z 05005KT 10SM FEW250 02/00 A3044 RMK AO2 SLP308 T00170000 $ =
2018-12-13 19:54 METAR KPHL 140054Z 04008KT 10SM FEW250 03/01 A3044 RMK AO2 SLP306 T00330006 $ =

Support USWX by starting your Amazon purchase here.